Regional Weather Roundup
Issued by NWS

Home | Current Version | Previous Version | Graphics & Text | Print | Product List | Glossary On
Versions: 1 2 3 4 5 6 7 8 9 10 11 12 13 14 15 16 17 18 19 20 21 22 23 24 25 26 27 28 29 30 31 32 33 34 35 36 37 38 39 40 41 42 43 44 45 46 47 48 49 50
858
ASUS43 KLOT 240203
RWRIL

ILLINOIS REGIONAL WEATHER ROUNDUP
NATIONAL WEATHER SERVICE CHICAGO/ROMEOVILLE IL
900 PM CDT SAT JUL 23 2016

NOTE: "FAIR" INDICATES FEW OR NO CLOUDS BELOW 12,000 FEET WITH NO
SIGNIFICANT WEATHER AND/OR OBSTRUCTIONS TO VISIBILITY.

* THESE STATIONS ARE NOT UNDER NWS QUALITY CONTROL. THEY ALSO MAY NOT
  REPORT WEATHER SUCH AS PRECIPITATION OR FOG.

ILZ001-002-007-009-015-016-024-240300-
NORTHWEST ILLINOIS

CITY           SKY/WX    TMP DP  RH WIND       PRES   REMARKS
MOLINE         CLOUDY    80  71  74 NE14G22   29.89R THUNDER HX  84
STERLING*      TSTM      75  72  88 NW3       29.96R
SAVANNA*       CLOUDY    71  69  92 E6        29.91R
$$

ILZ003-004-008-010-011-017-018-240300-
NORTH CENTRAL ILLINOIS

CITY           SKY/WX    TMP DP  RH WIND       PRES   REMARKS
ROCKFORD       TSTM      71  69  93 S15G25    29.95F
FREEPORT*      TSTM      71  69  95 SE3       29.94F
ROCHELLE*      TSTM      71  70  96 N8G35     30.01R VSB 1/2
DE KALB*       CLOUDY    73  71  93 N7        30.00R
$$

ILZ005-006-012>014-019>023-240300-
NORTHEAST ILLINOIS

CITY           SKY/WX    TMP DP  RH WIND       PRES   REMARKS
CHICAGO-OHARE  CLOUDY    74  69  85 SE13      29.93F
CHICAGO-MIDWAY CLOUDY    75  70  84 E13       29.94F
AURORA         CLOUDY    77  71  82 E7        29.95R
LANSING*       CLOUDY    75  72  90 E7        29.95F
WAUKEGAN       TSTM      71  68  90 W13G24    30.00R FOG
DUPAGE AIRPORT CLOUDY    74  69  85 E5        29.95S
WHEELING       CLOUDY    73  69  87 VRB3      29.95S
MORRIS*        CLOUDY    79  72  80 E7        29.93R HX  82
NORTHERLY ISL    N/A     71  69  93 E10         N/A
$$

LMZ740>746-240300-
SOUTHERN LAKE MICHIGAN

STATION/POSITION SKY/WX   TEMP    WIND        PRES    VSBY  WAVE
                          AIR SEA DIR/SP/G                  HT/PER
                          (F)     (DEG/KT/KT) (MB)    (MI)  (FT/S)
SOUTHERN BUOY              77 76  130/  8/ 10 1013.4          0
WILMETTE HARBOR            67 59  150/ 12/ 17   N/A           2/ 2
HARRISON CRIB              73      70/ 21/ 23   N/A
BURNHAM HARBOR             71     110/ 11/ 16   N/A
CALUMET HARBOR                     50/ 13/ 20   N/A
BURNS HARBOR               74     340/ 26     1015.2R
MICHIGAN CITY              74                   N/A
MICHIGAN CITY 6N           74 75  330/ 23/ 37   N/A           2/ 3
ST. JOSEPH                 78 76   20/ 10/ 14 1013.3F         1
$$

ILZ025>027-034>036-040-047-049-050-058-095>099-240300-
WEST-CENTRAL ILLINOIS

CITY           SKY/WX    TMP DP  RH WIND       PRES   REMARKS
QUINCY         PTCLDY    85  78  80 S7        29.89S HX  96
GALESBURG*     CLOUDY    82  78  88 SE3       29.90R HX  92
MACOMB*        CLEAR     82  78  89 SE5       29.92R HX  91
JACKSONVILLE*  CLEAR     83  76  78 SE6       29.91R HX  92
PITTSFIELD*    CLEAR     82  79  90 S3        29.92R HX  92
$$

ILZ028>032-037-038-041>044-048-051>054-059>061-240300-
CENTRAL ILLINOIS

CITY           SKY/WX    TMP DP  RH WIND       PRES   REMARKS
PONTIAC        CLOUDY    81  80  97 SE5       29.94R HX  90
BLOOMINGTON    CLEAR     81  78  91 S8        29.95S HX  89
DECATUR        CLEAR     83  77  82 S6        29.94R HX  92
PEORIA         PTCLDY    84  77  79 S3        29.92R HX  94
LACON*         PTCLDY    83  77  82 SE5       29.91R HX  91
LINCOLN*       CLEAR     82  79  90 SE3       29.92R HX  92
SPRINGFIELD    CLEAR     85  76  74 S7        29.92R HX  94
TAYLORVILLE    CLEAR     81  77  88 CALM      29.95R HX  89
$$

ILZ033-039-045-046-055>057-062-063-240300-
EAST-CENTRAL ILLINOIS

CITY           SKY/WX    TMP DP  RH WIND       PRES   REMARKS
CHAMPAIGN      CLEAR     80  76  87 E3        29.97R HX  86
RANTOUL*       CLEAR     81  79  94 SE5       29.96R HX  89
MATTOON        CLOUDY    82  76  81 CALM      29.95R HX  89
PARIS*         CLEAR     78  78 100 CALM      29.97R HX  80
$$

ILZ079-100>102-240300-
SOUTHWEST ILLINOIS

CITY           SKY/WX    TMP DP  RH WIND       PRES   REMARKS
ALTON          PTCLDY    81  75  83 SE6       29.93  HX  86
BELLEVILLE     CLEAR     83  79  89 CALM      29.92R HX  94
CAHOKIA*       CLEAR     85  76  74 S3        29.93R HX  94
SPARTA*        CLEAR     82  77  85 CALM      29.96R HX  90
$$

ILZ064>066-069>071-074>076-080>082-084>086-088>090-092>094-240300-
SOUTH-CENTRAL ILLINOIS

CITY           SKY/WX    TMP DP  RH WIND       PRES   REMARKS
CARBONDALE     CLEAR     83  77  82 SE6       29.95R HX  92
CAIRO*         CLEAR     80  78  94 CALM      29.95R HX  88
EFFINGHAM*     PTCLDY    81  80  97 CALM      29.96S FOG     HX  90
MARION         CLEAR     84  79  84 SE5       29.97R HX  96
MT. VERNON     CLEAR     81  72  74 CALM      29.96R HX  84
CENTRALIA*     CLEAR     82  78  90 CALM      29.94R HX  90
SALEM*         CLEAR     82  76  79 SE3       29.95R HX  90
METROPOLIS*    CLEAR     80  78  94 CALM      29.96R HX  85
$$

ILZ067-068-072-073-078-083-087-091-240300-
SOUTHEAST ILLINOIS

CITY           SKY/WX    TMP DP  RH WIND       PRES   REMARKS
LAWRENCEVILLE  PTCLDY    82  79  90 E3        29.96R HX  92
FLORA*         CLEAR     80  78  94 SE3       29.95R FOG     HX  89
FAIRFIELD*     PTCLDY    81  78  89 CALM      29.95R HX  89
HARRISBURG*    CLEAR     82  80  94 CALM      29.96R HX  92
ROBINSON*      PTCLDY    79  76  92 CALM      29.96R HX  83
CARMI*         CLEAR     80  80  99 CALM      29.95R FOG     HX  90
$$

ABBREVIATIONS USED IN REMARKS
   TC - TEMPERATURE IN CELSIUS
  WCI - WIND CHILL INDEX
   HX - HEAT INDEX
  VSB - VISIBILITY
$$





USA.gov is the U.S. government's official web portal to all federal, state and local government web resources and services.